Вернуться в каталог

STARLINK-32323

АктивенСвязьVLEO
NORAD 61677·PAYLOAD·🇺🇸 United States

Запущен Oct 26, 2024 с Cape Canaveral Space Force Station

Loading…

Ближайшие Пролёты (ближайшие 24 часа)

TLE

СвежийSource: CelesTrak SupGP

Эпоха: Sep 14, 2026, 21:00 UTC

1 61677C 24193S   26257.87548611  .00025039  00000+0  74000-3 0  2577
2 61677  53.1580 287.7631 0001196  92.9819 323.0645 15.34369118    15

Отслеживайте STARLINK-32323 в реальном времени с AllMySat

Download on the App Store